Mt. Pocono, PA

1:17 AM EST on December 10, 2019 (GMT -0500)
Pocono Mountains Municipal

Weather History for KMPO - October, 2019

Change the Weather History Date:

Tuesday, October 29, 2019

  Actual Average Record
Temperature  
Mean Temperature 51 °F 45 °F  
Max Temperature 54 °F 54 °F 75 °F (1984)
Min Temperature 48 °F 36 °F 16 °F (1907)
Degree Days  
Heating Degree Days 14 20  
Month to date heating degree days 412 479  
Since 1 July heating degree days 590 747  
Cooling Degree Days 0 0  
Month to date cooling degree days 5 0  
Year to date cooling degree days 348 313  
Growing Degree Days 1 (Base 50)    
Moisture  
Dew Point 50 °F    
Average Humidity 98    
Maximum Humidity 100    
Minimum Humidity 90    
Precipitation  
Precipitation T in 0.08 in 1.95 in (2017)
Month to date precipitation 5.85 3.81  
Year to date precipitation 42.07 40.15  
Sea Level Pressure  
Sea Level Pressure 30.27 in    
Wind  
Wind Speed 6 mph ()    
Max Wind Speed 12 mph    
Max Gust Speed 19 mph    
Visibility 6.8 miles    
Events Rain    
T = Trace of Precipitation, MM = Missing Value Source: Averaged Metar Reports

Daily Weather History Graph

Daily Weather History Graph

Search for Another Location

Airport or City:

Astronomy

Oct. 29, 2019 Rise Set
Actual Time 7:28 AM EDT 6:01 PM EDT
Civil Twilight 7:00 AM EDT 6:29 PM EDT
Nautical Twilight 6:27 AM EDT 7:01 PM EDT
Astronomical Twilight 5:55 AM EDT 7:33 PM EDT
Moon 9:00 AM EDT (10/29) 7:23 PM EDT (10/29)
Length of Visible Light 11h 29m
Length of Day
10h 32m
Waxing Crescent, 3% of the Moon is Illuminated
Oct 29
Waxing Crescent
Nov 4
First Quarter
Nov 12
Full
Nov 19
Last Quarter
Nov 26
New

Hourly Weather History & Observations

Time (EDT) Temp. Dew Point Humidity Pressure Visibility Wind Dir Wind Speed Gust Speed Precip Events Conditions
12:17 AM 48.0 °F 48.0 °F 100% 30.26 in 10.0 mi ESE 5.8 mph - N/A   Overcast
12:45 AM 48.0 °F 48.0 °F 100% 30.26 in 10.0 mi ESE 6.9 mph - N/A   Overcast
12:53 AM 48.0 °F 48.0 °F 100% 30.27 in 10.0 mi SE 6.9 mph - N/A   Overcast
1:53 AM 48.0 °F 48.0 °F 100% 30.27 in 7.0 mi SE 8.1 mph - N/A   Overcast
2:53 AM 48.0 °F 48.0 °F 100% 30.28 in 10.0 mi SE 8.1 mph - N/A   Overcast
3:53 AM 48.0 °F 48.0 °F 100% 30.27 in 10.0 mi SE 5.8 mph - N/A   Overcast
4:06 AM 48.0 °F 48.0 °F 100% 30.25 in 10.0 mi SE 5.8 mph - N/A   Overcast
4:44 AM 48.0 °F 48.0 °F 100% 30.25 in 9.0 mi SE 8.1 mph - N/A   Overcast
4:53 AM 48.0 °F 48.0 °F 100% 30.25 in 9.0 mi SE 6.9 mph - N/A   Overcast
5:06 AM 48.0 °F 48.0 °F 100% 30.25 in 4.0 mi SSE 5.8 mph - N/A   Overcast
5:41 AM 48.0 °F 48.0 °F 100% 30.26 in 2.5 mi South 4.6 mph - N/A   Overcast
5:53 AM 48.0 °F 48.0 °F 100% 30.27 in 2.0 mi SSE 5.8 mph - N/A   Overcast
6:23 AM 48.0 °F 48.0 °F 100% 30.25 in 3.0 mi SE 6.9 mph - N/A   Overcast
6:40 AM 48.0 °F 48.0 °F 100% 30.24 in 1.8 mi SE 4.6 mph - N/A   Overcast
6:51 AM 48.2 °F 48.2 °F 100% 30.25 in 0.8 mi SSE 6.9 mph - N/A   Mist
6:53 AM 48.0 °F 48.0 °F 100% 30.27 in 0.8 mi SSE 5.8 mph - N/A   Mist
7:03 AM 48.0 °F 48.0 °F 100% 30.25 in 1.8 mi SSE 5.8 mph - N/A   Overcast
7:10 AM 48.0 °F 48.0 °F 100% 30.26 in 3.0 mi SSE 5.8 mph - N/A   Overcast
7:48 AM 48.2 °F 48.2 °F 100% 30.26 in 1.8 mi SSE 4.6 mph - N/A   Overcast
7:53 AM 48.0 °F 48.0 °F 100% 30.28 in 1.8 mi SE 4.6 mph - N/A   Overcast
8:19 AM 48.9 °F 48.9 °F 100% 30.27 in 2.0 mi SE 4.6 mph - N/A   Overcast
8:48 AM 48.2 °F 48.2 °F 100% 30.28 in 1.2 mi SE 5.8 mph - N/A   Overcast
8:53 AM 48.9 °F 48.9 °F 100% 30.30 in 1.0 mi SSE 4.6 mph - N/A   Overcast
9:38 AM 50.0 °F 50.0 °F 100% 30.28 in 2.5 mi SSE 5.8 mph - 0.00 in   Overcast
9:53 AM 50.0 °F 50.0 °F 100% 30.31 in 2.5 mi SE 5.8 mph - 0.00 in   Overcast
10:08 AM 50.0 °F 50.0 °F 100% 30.28 in 1.8 mi SE 6.9 mph - N/A   Overcast
10:14 AM 50.0 °F 50.0 °F 100% 30.28 in 3.0 mi SSE 6.9 mph - N/A   Overcast
10:53 AM 51.1 °F 51.1 °F 100% 30.31 in 4.0 mi SE 5.8 mph - N/A   Overcast
11:08 AM 51.1 °F 51.1 °F 100% 30.29 in 7.0 mi SSE 6.9 mph - N/A   Overcast
11:24 AM 51.1 °F 51.1 °F 100% 30.29 in 4.0 mi SE 8.1 mph - N/A   Overcast
11:34 AM 51.1 °F 51.1 °F 100% 30.29 in 8.0 mi SE 5.8 mph - N/A   Overcast
11:41 AM 51.1 °F 51.1 °F 100% 30.29 in 6.0 mi SE 6.9 mph - N/A   Overcast
11:48 AM 51.8 °F 51.8 °F 100% 30.29 in 2.5 mi SSE 5.8 mph - 0.00 in Rain Light Rain
11:49 AM 51.1 °F 51.1 °F 100% 30.31 in 2.5 mi SSE 5.8 mph - 0.00 in Rain Light Rain
11:55 AM 51.1 °F 51.1 °F 100% 30.29 in 4.0 mi South 5.8 mph - 0.00 in Rain Light Rain
12:02 PM 52.0 °F 51.1 °F 97% 30.28 in 6.0 mi SE 8.1 mph - 0.00 in Rain Light Rain
12:14 PM 51.1 °F 51.1 °F 100% 30.28 in 4.0 mi SE 9.2 mph - 0.00 in   Overcast
12:21 PM 51.1 °F 51.1 °F 100% 30.28 in 3.0 mi SSE 6.9 mph - 0.00 in   Overcast
12:49 PM 51.8 °F 51.8 °F 100% 30.28 in 4.0 mi South 5.8 mph - 0.00 in Rain Light Rain
12:53 PM 52.0 °F 52.0 °F 100% 30.30 in 6.0 mi South 6.9 mph - 0.00 in   Overcast
1:05 PM 52.0 °F 52.0 °F 100% 30.28 in 8.0 mi South 5.8 mph - N/A   Overcast
1:15 PM 53.1 °F 52.0 °F 96% 30.27 in 7.0 mi SSE 9.2 mph - N/A   Overcast
1:22 PM 53.1 °F 51.1 °F 93% 30.26 in 7.0 mi SSE 9.2 mph - N/A   Overcast
1:31 PM 53.1 °F 52.0 °F 96% 30.26 in 10.0 mi SE 6.9 mph - N/A   Overcast
1:38 PM 53.1 °F 52.0 °F 96% 30.25 in 10.0 mi SSE 8.1 mph - N/A   Overcast
1:53 PM 53.1 °F 51.1 °F 93% 30.27 in 10.0 mi South 10.4 mph - N/A   Overcast
2:53 PM 54.0 °F 51.1 °F 90% 30.27 in 10.0 mi SSE 6.9 mph - N/A   Overcast
3:53 PM 54.0 °F 52.0 °F 93% 30.26 in 10.0 mi South 8.1 mph - N/A   Overcast
4:34 PM 54.0 °F 52.0 °F 93% 30.25 in 10.0 mi South 5.8 mph - N/A   Overcast
4:53 PM 54.0 °F 52.0 °F 93% 30.27 in 10.0 mi South 5.8 mph - N/A   Overcast
5:01 PM 54.0 °F 52.0 °F 93% 30.25 in 10.0 mi Variable 5.8 mph - N/A   Overcast
5:34 PM 53.1 °F 52.0 °F 96% 30.26 in 10.0 mi South 6.9 mph - N/A   Overcast
5:53 PM 53.1 °F 52.0 °F 96% 30.28 in 10.0 mi South 4.6 mph - N/A   Overcast
6:13 PM 53.1 °F 52.0 °F 96% 30.26 in 10.0 mi South 4.6 mph - N/A   Overcast
6:39 PM 53.1 °F 52.0 °F 96% 30.26 in 10.0 mi SSE 5.8 mph - N/A   Overcast
6:53 PM 53.1 °F 52.0 °F 96% 30.27 in 10.0 mi SSE 3.5 mph - N/A   Overcast
7:00 PM 53.1 °F 52.0 °F 96% 30.26 in 10.0 mi SSE 4.6 mph - N/A   Overcast
7:17 PM 53.1 °F 52.0 °F 96% 30.26 in 10.0 mi South 4.6 mph - N/A   Overcast
7:53 PM 52.0 °F 52.0 °F 100% 30.28 in 10.0 mi SSE 3.5 mph - N/A   Overcast
8:04 PM 52.0 °F 52.0 °F 100% 30.26 in 10.0 mi South 3.5 mph - N/A   Overcast
8:25 PM 52.0 °F 52.0 °F 100% 30.26 in 10.0 mi Variable 3.5 mph - N/A   Overcast
8:40 PM 52.0 °F 52.0 °F 100% 30.26 in 10.0 mi South 4.6 mph - N/A   Overcast
8:53 PM 52.0 °F 52.0 °F 100% 30.28 in 10.0 mi South 4.6 mph - N/A   Overcast
9:21 PM 52.0 °F 52.0 °F 100% 30.27 in 10.0 mi South 4.6 mph - N/A   Overcast
9:53 PM 52.0 °F 52.0 °F 100% 30.29 in 10.0 mi South 3.5 mph - N/A   Overcast
10:19 PM 52.0 °F 52.0 °F 100% 30.28 in 10.0 mi Calm Calm - N/A   Overcast
10:34 PM 52.0 °F 52.0 °F 100% 30.28 in 10.0 mi South 4.6 mph - N/A   Overcast
10:45 PM 53.1 °F 52.0 °F 96% 30.28 in 10.0 mi South 3.5 mph - N/A   Overcast
10:53 PM 52.0 °F 52.0 °F 100% 30.30 in 10.0 mi SSW 5.8 mph - N/A   Overcast
11:53 PM 53.1 °F 51.1 °F 93% 30.30 in 10.0 mi SW 5.8 mph - N/A   Overcast